Temp
33 33 32 32 31 31 30 30 30 29 28 28 28 28 27 27 26 26 26 25 25 25 25 24 24 24 24 24 23 23 22 22 22 21 21 21 21 21 20 20 20 20 20 20 20 20 20 20 20 20 20 19 19 19 19 19 19 19 19 19 19 19 19
34 33 32 32 31 31 31 30 30 29 29 28 28 28 28 27 26 26 26 25 25 25 25 24 24 24 24 24 23 23 22 22 22 21 21 21 21 20 20 20 20 20 20 20 20 20 20 20 20 20 19 19 19 19 19 19 19 19 19 19 19 19 19
33 33 32 32 31 31 31 30 30 29 29 29 28 28 28 27 26 26 26 26 25 25 25 24 24 24 24 23 23 23 22 22 22 21 21 21 21 21 20 20 20 20 20 20 20 20 20 20 19 19 19 19 19 19 19 19 19 19 19 19 19 20 19
33 33 32 32 31 31 31 30 30 29 29 29 29 28 28 27 26 26 26 26 26 25 25 24 24 24 23 23 23 23 22 22 21 21 21 21 21 20 20 20 20 20 20 20 20 20 19 19 19 19 19 19 19 19 19 19 19 19 19 19 19 19 19
32 32 32 32 31 30 30 30 30 30 30 30 29 28 27 27 26 27 26 26 26 25 25 24 24 24 23 23 23 22 22 22 21 21 21 21 21 20 20 20 20 20 20 20 20 20 19 19 20 20 20 20 20 19 19 19 19 19 19 19 19 19 19
32 32 32 32 31 30 30 30 30 30 30 30 29 28 28 27 27 27 27 26 25 25 24 24 24 23 23 23 23 22 22 21 21 21 21 21 21 21 20 20 20 20 20 20 20 20 19 19 19 19 20 20 20 20 19 19 20 20 19 19 19 19 19
32 32 32 32 31 31 31 31 31 30 30 30 29 28 28 28 28 28 27 26 25 25 24 24 24 24 23 23 22 22 22 21 21 21 21 21 21 21 20 20 20 20 20 20 19 19 19 19 19 19 19 19 19 19 19 19 19 19 19 19 19 19 19
32 32 32 32 32 31 31 31 31 30 30 30 29 29 29 29 28 28 27 27 26 26 25 25 25 24 23 23 22 22 22 22 21 21 21 21 21 21 21 21 21 20 20 20 20 19 19 19 19 19 19 19 19 19 19 19 19 19 19 19 19 19 19
32 32 32 32 32 32 32 31 31 30 30 29 29 29 29 28 28 28 27 27 26 26 26 26 25 24 23 23 22 22 22 22 21 21 21 21 21 21 21 22 21 21 20 20 20 20 19 19 19 19 19 19 19 19 19 19 19 19 19 19 19 19 18
32 31 32 32 32 32 32 31 31 30 29 28 28 28 28 28 28 27 27 27 27 26 26 25 25 24 23 23 22 22 22 22 22 22 22 22 22 22 22 22 22 22 21 20 20 20 19 19 19 19 19 19 19 19 19 19 19 19 19 19 19 18 18
32 31 31 32 31 31 31 30 30 29 28 28 27 28 28 27 27 27 26 27 27 27 26 25 24 24 24 23 23 23 22 22 22 22 22 22 22 22 22 22 22 21 21 21 20 20 20 20 20 19 19 20 19 19 19 19 19 19 19 19 19 18 18
31 31 30 30 31 30 30 29 29 28 28 27 27 27 27 27 26 26 26 26 27 26 26 25 24 24 24 23 24 23 22 22 22 22 22 22 22 22 22 22 21 21 21 21 21 21 21 21 20 20 20 20 20 20 20 20 19 19 19 19 18 18 18
31 31 30 30 30 29 29 29 28 28 28 27 28 27 27 27 27 26 26 26 26 26 25 25 24 24 23 23 24 23 23 23 22 22 22 22 22 22 21 21 21 21 21 21 21 21 21 21 21 20 20 20 20 20 20 20 19 19 19 18 18 18 18
30 30 30 29 29 29 29 28 28 28 28 28 28 27 27 27 27 26 26 26 26 26 25 24 24 23 23 23 23 23 23 23 23 22 22 22 22 21 21 21 21 20 20 21 21 21 21 21 21 21 21 20 20 20 20 20 19 19 18 18 18 18 18
30 30 29 29 29 28 28 28 28 28 28 28 28 28 27 27 27 26 26 26 26 25 25 24 23 23 23 23 23 23 23 23 22 22 22 22 22 21 21 21 20 20 21 21 21 21 21 21 21 21 21 21 20 20 20 20 19 19 18 18 17 17 17
30 30 29 29 28 28 28 28 28 28 28 28 28 28 28 27 26 26 26 26 26 25 25 24 23 23 23 23 23 23 23 23 22 22 22 22 22 21 21 21 20 21 21 21 21 21 21 21 20 21 21 21 20 20 20 20 19 19 18 18 17 17 17
31 30 30 29 29 28 28 28 28 28 28 28 28 28 27 27 27 27 27 27 26 26 25 24 24 23 23 23 23 23 23 23 22 22 22 22 21 21 21 21 21 21 21 21 21 21 21 21 21 21 21 21 21 20 20 20 19 19 18 17 17 17 17
31 30 30 29 29 29 29 28 28 28 29 28 28 28 28 27 27 27 27 27 27 26 25 24 24 24 24 24 23 23 23 23 23 22 22 22 22 21 21 21 21 21 21 21 21 21 21 21 21 21 21 21 21 20 20 20 19 19 18 17 17 17 16
30 30 30 29 29 29 29 29 29 29 29 29 28 28 28 28 27 27 27 27 26 26 25 25 24 24 24 24 24 24 23 23 23 23 22 22 22 21 21 21 21 21 21 22 22 21 21 21 21 21 21 21 21 20 20 20 19 18 18 17 17 17 17
30 30 30 29 29 29 29 30 30 29 29 29 29 29 28 28 28 27 27 27 26 26 25 25 25 25 24 24 24 24 23 23 23 23 22 22 22 21 21 21 21 21 21 22 22 21 21 21 21 21 21 21 21 21 20 20 19 18 18 18 17 17 17
29 29 29 29 29 29 29 30 30 29 29 29 29 29 29 28 28 27 27 27 26 26 25 25 25 25 24 24 24 24 23 23 23 23 22 22 22 22 21 21 22 22 21 22 22 22 21 21 21 21 21 21 21 21 21 20 20 19 18 18 17 18 17
30 29 29 29 29 29 29 29 29 29 29 29 29 29 29 28 28 28 27 27 26 26 25 25 25 25 25 25 24 24 24 23 23 23 23 22 22 22 22 22 22 22 22 22 21 21 22 21 22 22 21 21 20 21 21 21 20 19 19 18 18 18 17
30 30 30 30 30 29 29 29 29 29 28 29 29 29 28 28 28 28 27 27 26 26 26 25 25 25 25 25 25 24 24 24 23 23 23 23 23 22 22 22 22 22 22 22 21 22 22 22 22 21 20 19 19 19 19 20 20 20 19 18 18 18 17
30 31 30 30 30 29 28 28 28 29 29 29 29 28 28 28 28 28 27 27 27 26 26 26 26 25 25 25 25 24 24 24 23 23 23 23 23 22 22 22 22 22 22 21 21 21 21 20 20 20 19 19 19 19 18 19 20 20 19 19 18 18 18
30 31 30 30 30 29 28 28 28 29 29 29 28 28 28 28 28 28 27 27 27 27 27 26 26 25 25 25 25 24 24 24 23 23 23 23 23 23 22 21 21 21 21 21 20 20 19 19 19 18 18 19 19 19 19 18 18 19 19 19 19 18 18
29 30 30 30 29 29 28 28 28 29 29 28 28 28 27 27 28 27 27 27 27 27 27 26 26 26 25 25 25 24 24 23 23 23 23 23 23 22 21 20 21 21 20 20 20 20 19 19 19 18 18 18 18 18 18 18 18 19 20 19 19 19 18
29 29 29 29 29 28 28 28 28 28 28 28 28 28 27 27 27 27 27 27 26 27 27 26 26 25 25 25 24 24 23 23 23 23 23 22 21 21 21 20 20 21 20 20 20 19 19 19 18 18 18 18 18 17 17 18 19 20 20 19 19 19 18
29 29 30 29 28 28 28 28 28 29 29 28 28 28 27 27 27 26 26 26 26 26 26 26 26 25 24 24 23 23 23 23 23 23 22 21 20 20 20 20 20 21 20 20 19 19 18 18 18 18 18 18 18 18 18 18 18 18 19 19 19 19 18
29 29 29 29 28 28 28 28 28 28 29 29 29 27 26 26 26 26 26 26 26 26 26 25 25 24 23 23 23 23 23 22 22 22 22 21 20 21 20 20 20 20 20 19 19 19 19 18 18 18 18 18 18 18 18 17 16 17 18 18 18 19 18
29 29 29 29 29 28 28 28 28 28 29 29 28 26 26 25 25 25 25 25 25 25 25 24 23 23 23 23 22 22 22 22 22 22 21 21 20 20 20 20 20 20 19 19 19 19 19 18 18 18 18 18 18 18 17 17 16 17 18 18 17 18 18
29 29 29 29 29 28 28 28 28 28 28 27 26 25 25 25 25 25 25 25 25 24 24 23 22 22 22 22 22 22 22 22 22 21 21 21 20 20 20 20 20 20 19 19 19 19 19 19 18 18 18 18 18 17 17 17 17 18 18 17 17 17 17
28 28 28 28 28 27 27 28 28 27 27 26 25 25 24 24 24 25 25 25 24 24 23 23 22 22 22 22 22 22 21 21 21 21 20 20 20 20 20 20 20 20 19 19 19 19 19 19 18 18 18 19 18 17 17 17 17 17 17 16 16 16 16
27 28 28 27 26 26 26 27 27 27 27 26 25 25 25 24 24 24 24 24 24 23 23 22 22 22 22 22 22 21 20 20 20 20 20 20 20 20 20 20 19 19 19 20 20 20 19 19 19 19 19 18 18 17 17 18 17 16 15 15 15 15 16
27 27 26 25 25 25 26 26 27 27 27 26 25 24 24 24 25 24 24 24 24 23 23 22 22 22 22 22 21 20 20 20 19 20 20 20 20 20 20 20 18 18 18 19 19 19 19 19 19 19 18 18 18 17 18 18 17 15 13 13 14 15 16
27 26 25 24 24 24 25 25 25 25 25 24 24 23 23 23 24 24 24 23 23 23 22 22 21 21 21 21 21 20 20 20 20 20 20 19 19 19 19 18 18 17 17 17 17 17 17 17 18 18 17 18 17 16 16 16 14 12 12 13 14 14 15
26 26 25 24 24 24 24 23 23 24 23 23 22 23 22 22 22 23 23 23 22 22 21 21 20 20 21 21 21 20 20 20 20 20 19 19 19 19 18 17 16 16 16 15 16 16 15 15 16 15 15 16 15 13 12 12 11 11 12 13 13 13 13
26 26 25 25 24 24 23 23 23 23 23 22 22 22 22 22 22 22 22 22 21 21 21 20 20 20 21 21 21 20 20 20 20 19 19 18 18 18 18 17 15 14 14 14 14 14 13 13 13 13 13 13 13 12 11 11 11 11 11 12 13 13 12
25 25 25 25 25 24 23 23 23 23 23 22 22 22 22 22 22 22 22 21 21 21 21 20 20 20 21 21 20 19 19 19 19 19 19 19 18 18 18 16 14 12 12 12 12 12 12 11 11 11 11 11 11 11 11 11 11 11 11 11 12 12 12
Height
776 779 782 784 787 790 792 796 799 803 806 810 812 815 818 820 822 825 826 827 828 829 829 830 831 831 831 831 831 831 832 832 832 832 832 832 832 832 831 830 829 829 827 826 825 824 824 823 822 821 820 820 819 817 816 815 814 812 811 810 809 808 807
772 776 779 781 784 786 789 793 797 800 804 807 810 813 816 818 821 823 825 826 827 828 828 829 829 829 830 830 830 830 831 831 831 831 831 831 831 831 830 830 829 828 826 825 824 824 823 822 821 820 820 819 818 816 815 814 812 811 810 809 807 806 805
770 773 775 778 781 783 787 791 795 797 801 804 808 811 814 816 819 821 823 824 825 826 827 828 828 828 828 828 829 829 829 830 830 830 830 830 830 830 829 828 827 826 825 824 824 823 822 821 820 820 818 818 816 815 814 813 811 810 809 808 806 805 804
769 769 772 776 778 781 784 788 792 795 798 802 805 809 812 814 817 819 821 823 824 825 825 826 827 826 827 827 827 828 828 828 828 828 829 829 829 829 828 827 826 825 824 823 823 822 821 820 819 818 817 816 815 814 813 811 810 809 807 806 805 803 803
768 768 771 774 776 780 782 785 790 793 796 800 803 807 810 813 816 818 820 821 822 824 824 825 825 825 826 826 826 826 826 826 827 827 827 827 827 827 826 826 825 824 823 822 821 820 819 819 818 817 816 815 814 813 812 810 809 808 806 805 803 802 801
766 767 769 771 774 777 779 782 787 791 794 797 801 806 808 811 814 815 817 819 820 822 823 823 824 824 824 824 824 824 824 825 825 825 826 826 826 825 825 824 823 822 822 820 820 819 818 817 816 816 815 814 813 812 810 809 808 806 805 804 802 801 800
763 764 766 768 770 773 776 780 784 789 793 796 799 804 806 808 811 812 815 817 819 820 821 822 822 823 823 823 823 823 823 823 823 824 824 824 824 824 823 823 822 821 820 819 818 818 817 816 815 815 814 813 812 810 809 808 806 805 803 802 801 800 799
759 760 762 764 766 769 772 777 782 787 791 794 797 801 803 806 808 810 813 815 817 818 819 820 821 821 822 822 822 822 821 822 822 822 822 822 822 822 821 821 820 820 819 818 817 816 816 815 814 813 813 811 811 809 808 806 805 804 802 801 800 799 798
755 757 758 760 762 765 769 774 779 784 788 792 795 798 801 804 806 808 811 813 815 816 817 818 819 820 820 820 820 820 820 821 820 821 821 821 821 820 820 819 818 818 818 817 816 815 814 813 812 812 811 810 809 808 807 805 803 802 801 800 799 798 797
754 756 756 757 760 763 767 772 777 782 786 789 793 796 799 802 804 807 809 811 813 814 815 816 817 818 819 819 819 819 819 819 819 819 819 819 819 818 818 817 816 816 816 815 814 813 813 812 811 810 809 808 807 806 805 804 802 801 800 799 798 797 795
753 755 756 757 760 762 765 769 774 779 783 787 790 794 797 800 803 805 807 810 810 811 813 814 816 817 817 817 817 818 818 818 818 818 818 817 817 817 816 815 815 815 814 813 812 811 811 810 809 808 806 805 805 804 803 802 801 799 798 797 796 795 793
753 754 756 757 759 761 763 766 770 774 779 784 788 791 795 797 800 803 805 808 809 810 811 813 814 815 815 816 816 816 816 816 816 816 816 816 816 815 815 814 814 813 812 811 810 809 808 807 806 805 804 803 802 802 801 800 799 798 797 796 795 793 792
753 753 755 756 758 760 763 765 767 770 776 781 785 789 792 795 798 801 803 806 807 808 809 811 813 813 814 814 814 814 815 815 815 815 815 815 814 814 813 813 812 812 811 810 809 807 806 805 804 803 802 801 800 799 798 797 796 795 795 794 793 791 790
753 753 754 756 758 760 761 764 766 768 774 778 782 786 789 792 795 798 801 803 805 806 807 809 811 811 812 812 812 813 813 813 813 813 813 813 812 812 811 811 811 810 809 808 806 805 804 803 801 800 799 798 797 796 796 795 794 793 792 792 791 790 788
752 753 754 755 756 757 759 762 763 766 771 775 780 784 787 790 793 796 799 801 802 804 805 807 809 809 810 810 810 811 811 811 812 811 811 811 810 810 809 809 809 808 807 806 804 803 802 800 799 798 796 796 795 794 793 793 792 791 790 790 789 788 787
750 750 751 752 753 755 756 758 760 764 768 773 777 781 784 788 791 794 797 798 800 802 803 805 806 807 808 808 808 809 809 809 810 809 809 809 809 808 807 807 807 805 804 803 802 801 800 799 797 796 794 793 792 791 790 790 790 789 788 787 787 786 785
746 747 747 748 750 752 753 755 758 761 765 770 774 778 782 786 789 792 794 796 798 800 801 803 804 804 805 805 806 807 807 807 807 807 807 807 807 806 805 805 804 803 802 801 799 799 798 797 795 794 792 791 790 789 788 788 787 786 786 786 785 784 783
743 744 744 745 747 748 750 752 755 757 761 767 772 776 780 784 787 790 792 793 795 797 799 801 801 802 802 803 804 804 804 805 805 805 805 804 804 803 803 802 801 800 800 798 797 796 795 794 793 792 790 789 788 787 786 785 785 784 784 784 783 782 780
741 741 740 742 743 745 747 748 750 754 759 764 769 774 778 782 785 787 789 791 793 795 797 797 798 799 800 800 801 801 802 803 802 802 802 801 801 801 800 800 799 798 797 795 794 794 793 792 791 789 788 787 786 785 784 783 783 782 782 782 781 780 778
738 738 738 739 740 742 743 744 747 752 757 762 767 772 777 780 782 784 786 789 791 793 794 794 795 796 797 798 799 799 799 800 799 799 799 799 799 798 797 797 796 795 794 793 792 791 791 790 788 787 786 785 784 783 782 781 781 780 780 779 778 777 775
736 736 736 737 738 740 741 743 746 751 756 761 766 771 775 777 779 782 784 786 788 790 791 792 792 793 794 795 796 796 797 797 796 796 796 796 796 796 795 795 794 793 792 791 790 789 788 787 786 784 783 782 781 780 779 778 778 777 777 776 775 774 773
732 733 734 734 736 738 740 742 746 750 755 760 765 769 772 775 777 779 781 783 785 787 788 789 790 790 791 792 793 794 794 794 794 794 793 794 794 793 793 792 791 791 790 789 788 787 786 785 783 782 781 781 780 779 777 776 775 774 774 773 772 772 771
728 729 730 731 734 737 739 743 746 749 754 759 764 767 770 772 775 776 778 781 782 783 785 786 786 787 788 789 790 791 791 791 791 791 791 791 790 790 790 790 789 789 788 787 787 785 784 783 782 781 781 780 780 779 777 775 772 771 771 771 770 769 769
725 726 728 730 733 736 740 744 746 749 754 758 762 765 767 770 772 774 776 778 779 780 782 783 783 785 786 787 787 788 788 788 788 788 788 788 788 787 788 788 788 787 787 787 786 785 784 783 782 782 781 780 779 778 776 774 772 769 768 768 768 767 766
725 726 729 731 733 736 739 743 746 750 754 757 760 763 765 767 768 771 773 774 775 777 778 779 780 781 782 784 784 785 785 786 786 786 786 785 785 785 785 786 786 786 786 785 785 784 784 783 782 781 781 780 779 777 775 773 771 768 766 765 765 765 764
727 727 729 731 733 736 739 743 747 750 753 756 758 760 761 763 765 767 769 770 772 773 774 776 777 778 779 781 781 782 783 783 784 784 784 783 783 782 783 783 784 784 784 783 783 782 781 780 779 778 778 777 777 776 774 772 769 766 764 763 763 763 762
728 728 730 732 734 737 740 743 746 749 752 754 755 757 759 761 762 764 766 768 769 769 771 773 774 776 777 778 779 780 781 781 781 781 781 782 781 780 780 781 781 782 781 781 780 779 779 778 777 776 774 774 774 774 773 770 767 764 762 762 761 761 760
728 729 731 733 735 738 740 743 745 748 750 752 753 755 757 758 760 762 764 765 766 767 769 770 772 773 775 776 777 778 778 779 779 779 779 780 779 779 778 778 778 779 778 779 778 777 776 776 775 774 773 772 771 770 768 767 765 763 761 760 759 759 758
728 730 731 733 736 738 740 743 745 747 748 750 752 754 755 757 758 759 761 763 763 765 767 768 770 771 772 773 775 775 776 777 776 777 778 778 777 776 776 776 776 776 776 776 776 775 774 773 772 772 771 770 769 767 766 766 766 763 759 758 757 757 756
729 731 732 734 736 738 741 743 744 746 748 749 751 753 754 755 757 758 759 761 762 763 764 765 767 768 769 771 773 773 774 775 775 775 776 776 775 774 774 774 775 774 774 774 774 774 773 771 771 770 769 768 767 765 764 765 764 761 757 756 756 755 755
729 732 733 734 736 739 741 742 743 746 747 748 750 752 753 754 755 756 756 758 760 761 762 762 764 765 768 770 771 771 773 774 774 775 775 774 774 773 772 773 773 773 773 773 772 771 771 770 769 769 768 767 765 763 762 762 762 759 756 755 755 754 753
730 732 734 735 737 739 741 742 743 745 747 748 750 751 751 753 754 754 755 756 757 758 759 760 762 764 767 769 769 770 772 773 773 774 774 774 773 772 771 771 771 771 771 771 770 769 768 768 767 767 766 765 763 762 761 761 761 759 757 756 754 753 752
731 733 734 736 738 740 741 742 744 745 746 748 749 750 751 753 753 754 755 756 756 757 757 759 761 763 766 767 768 770 771 772 772 773 773 773 772 770 770 769 770 770 770 769 768 767 766 766 765 764 764 763 762 762 761 760 759 758 757 755 753 752 750
732 734 736 737 739 741 742 743 745 745 746 748 749 751 752 752 753 754 754 755 756 756 757 759 761 763 765 766 768 769 770 771 771 771 771 771 770 769 768 768 768 769 769 768 766 765 765 764 764 763 763 762 761 761 760 759 758 758 756 754 752 750 749
734 736 738 739 741 742 743 744 745 746 747 748 750 751 752 752 753 753 754 755 756 756 758 760 761 763 765 766 767 769 769 769 770 769 769 769 768 768 767 767 767 767 767 767 765 764 764 764 763 763 763 762 761 761 760 759 759 758 756 754 751 750 748
735 737 738 740 741 742 743 744 745 746 748 749 750 751 752 753 753 754 754 755 756 757 758 759 761 763 764 765 766 766 766 767 767 767 768 767 766 766 766 766 766 766 765 765 764 763 763 763 763 763 762 762 762 761 761 761 759 758 755 753 751 750 748
734 736 737 739 740 741 743 745 746 747 748 749 750 751 752 752 753 753 754 755 756 757 758 758 760 761 762 763 764 764 764 765 765 765 766 765 765 765 765 765 765 765 764 764 764 763 763 763 762 762 762 762 762 762 761 761 759 757 755 753 751 750 749
735 736 738 739 740 742 744 745 746 747 748 749 750 751 751 752 753 753 754 755 755 756 757 757 758 759 760 761 762 763 764 765 764 764 764 764 764 764 764 765 765 764 764 764 764 764 764 764 763 763 762 762 762 761 761 760 758 756 755 753 751 750 749
Wind_Speed
17 16 15 13 13 14 15 17 19 19 18 17 17 17 16 15 14 12 11 10 8 7 6 4 3 2 1 1 1 2 2 2 2 3 3 3 3 4 5 6 6 6 6 7 7 7 7 7 7 7 7 7 8 8 9 9 10 11 11 11 12 13 14
17 16 15 14 14 14 16 18 19 19 18 18 18 18 17 15 15 13 11 10 9 7 6 5 5 3 2 1 1 1 2 2 2 2 2 3 3 4 5 6 7 7 6 6 6 7 7 7 7 7 8 8 8 9 9 10 10 10 11 11 11 11 11
16 16 15 15 14 14 16 18 19 19 19 19 19 19 18 16 15 14 12 11 10 8 7 6 5 4 2 2 2 2 2 2 2 2 2 3 4 5 6 6 7 7 6 6 6 7 7 8 8 8 8 9 9 9 10 10 11 11 11 10 11 11 11
15 16 16 15 15 15 16 18 19 19 20 20 21 20 18 17 16 14 12 11 9 8 7 6 5 4 3 2 2 2 2 2 2 3 3 3 4 5 6 6 7 7 6 6 7 7 8 9 9 9 9 10 10 10 11 12 12 12 12 12 12 12 12
15 16 15 15 15 14 15 17 19 20 20 21 21 20 18 18 16 14 12 10 9 7 6 6 5 4 3 3 3 3 3 3 3 3 4 4 4 5 6 6 7 7 7 7 7 8 8 9 9 10 10 11 12 12 12 13 13 13 13 13 13 13 13
14 15 15 14 15 14 15 18 21 21 21 22 21 20 18 18 16 14 12 11 9 8 7 6 5 4 4 4 4 4 3 4 4 4 4 4 5 5 6 6 7 7 7 7 7 8 8 9 10 11 12 13 13 13 14 14 14 14 13 12 12 12 14
13 14 15 15 15 15 16 19 22 22 21 21 21 20 19 17 15 13 12 11 10 9 8 7 7 6 5 5 5 5 5 5 5 5 5 5 6 6 6 6 6 7 7 8 8 8 9 10 11 12 13 14 14 15 16 15 15 14 14 12 12 13 14
14 14 16 16 16 16 16 19 22 22 22 21 20 20 19 16 14 13 12 11 10 9 8 8 7 7 6 6 6 6 6 6 6 6 6 7 7 7 7 7 7 8 8 9 9 9 10 10 11 12 13 15 15 15 15 16 14 13 13 13 13 15 15
14 14 16 17 17 16 16 20 22 21 21 21 20 20 18 16 14 13 12 11 10 9 9 8 7 8 7 7 7 7 7 7 6 7 7 7 8 7 7 8 8 8 9 10 10 10 11 11 12 13 13 14 15 13 13 14 14 13 13 12 13 14 15
13 14 15 17 16 14 16 20 21 20 20 20 19 18 18 16 15 14 12 12 11 10 9 8 8 8 8 8 8 8 8 8 7 8 8 8 8 7 8 9 9 9 10 11 12 12 12 13 13 14 14 13 13 12 12 13 13 14 13 12 12 13 14
13 13 13 16 16 15 17 18 19 19 19 18 18 18 18 17 16 15 13 13 12 10 9 9 9 9 8 8 9 9 9 9 8 8 8 8 8 8 8 9 10 11 11 11 12 13 14 14 15 15 14 13 12 12 12 12 12 12 12 13 12 12 13
11 12 13 16 16 16 17 16 17 19 19 18 19 18 17 16 16 15 14 13 12 10 9 9 9 9 9 9 9 9 9 9 9 8 8 8 8 8 9 10 11 11 12 12 13 14 15 15 16 15 14 14 13 13 13 12 11 11 11 11 12 12 13
10 10 12 14 14 15 15 15 16 19 20 19 20 19 17 17 16 15 14 14 13 11 10 10 10 10 10 9 9 9 9 9 9 8 8 8 8 9 10 11 12 12 13 14 14 15 16 16 17 17 16 15 14 14 13 12 11 11 10 10 10 12 13
10 11 11 13 14 15 16 15 15 17 20 20 20 19 17 16 15 15 14 14 13 12 11 10 11 11 10 10 10 10 10 9 8 8 8 9 9 10 12 13 13 14 14 15 15 16 17 17 17 17 17 16 15 14 13 12 12 11 9 9 9 11 13
11 12 13 14 15 16 16 16 15 16 19 20 19 19 17 15 14 14 14 14 13 12 12 11 12 12 11 11 11 11 10 9 9 8 8 9 9 11 13 13 13 14 14 15 16 16 16 17 17 17 17 16 15 14 13 13 12 11 9 8 9 10 13
12 13 14 15 16 16 16 16 16 17 19 19 19 19 17 15 14 14 15 15 14 13 12 12 13 13 12 11 12 11 10 10 9 9 9 10 10 12 13 14 14 13 13 15 16 15 15 15 15 16 15 15 15 13 12 11 10 11 11 9 8 11 14
13 14 15 15 16 16 16 16 16 17 18 19 19 19 17 15 15 15 16 15 14 13 13 14 14 14 13 12 12 12 11 10 10 11 11 11 12 13 14 14 14 13 14 15 15 14 14 14 14 14 14 14 13 11 10 10 10 12 12 9 8 12 14
12 13 14 15 16 16 17 17 17 17 19 20 20 19 17 16 16 17 17 15 13 13 13 15 15 14 13 13 13 12 11 11 12 12 12 12 13 14 14 14 14 14 15 15 14 12 13 13 13 13 13 12 12 11 10 10 11 13 12 9 9 12 14
11 12 13 14 16 17 17 18 19 20 21 21 21 20 18 18 18 18 17 15 14 13 14 15 14 14 13 13 13 12 11 12 12 12 13 13 14 14 15 14 14 14 15 14 12 12 13 13 13 13 12 11 10 10 11 10 10 12 11 9 10 12 12
10 10 12 14 15 16 16 17 19 21 22 22 22 20 19 19 19 18 17 15 14 15 16 15 14 14 13 13 12 12 12 12 12 13 13 14 14 14 13 13 13 13 14 13 12 12 13 13 13 13 11 11 11 11 11 9 9 11 11 10 10 10 11
8 9 11 12 14 15 15 16 19 21 22 22 22 21 20 20 19 18 17 16 16 16 16 15 14 14 14 13 12 12 12 12 12 13 13 13 13 13 12 12 12 12 12 12 12 13 13 13 14 13 12 11 11 12 12 10 10 11 11 11 10 10 10
7 8 10 11 12 14 16 18 20 21 21 21 21 21 20 20 20 18 17 17 17 17 16 15 15 14 14 13 12 12 12 12 12 12 13 13 13 13 12 12 12 12 11 11 12 13 13 13 14 13 13 13 13 13 12 10 10 10 11 11 11 10 10
5 7 8 9 12 15 17 19 20 21 22 21 21 22 21 20 20 19 18 18 18 17 16 15 15 15 14 13 12 11 11 11 11 12 13 13 12 12 11 11 12 12 11 11 13 13 13 13 14 13 13 16 18 18 17 14 11 10 11 11 11 11 12
4 6 8 11 13 16 18 18 19 22 24 23 22 22 21 20 21 20 19 19 18 17 16 16 15 15 13 12 12 11 11 10 11 12 12 12 12 12 12 11 11 12 11 11 14 15 12 13 15 16 15 15 17 19 21 19 16 11 9 10 11 12 14
5 6 9 11 14 16 18 18 20 23 24 22 21 21 21 22 22 21 20 20 19 17 17 17 16 14 13 12 12 11 10 10 10 11 11 11 12 12 10 8 9 11 10 10 12 13 12 13 15 17 19 19 20 20 21 21 18 12 9 10 11 12 14
5 7 9 11 13 15 17 18 19 20 20 19 20 22 22 22 23 22 21 21 20 19 18 18 16 14 13 12 11 10 9 9 10 11 10 11 11 9 6 5 7 9 9 9 10 9 9 10 11 14 18 21 21 21 21 21 19 13 11 11 10 11 14
7 7 9 11 13 14 16 17 17 18 18 20 22 22 20 20 21 21 21 20 20 20 18 17 15 14 13 12 9 8 9 9 10 10 10 10 10 7 3 4 7 8 8 8 8 6 7 8 8 10 15 18 19 20 21 21 19 15 13 12 10 10 13
8 8 9 10 12 13 14 15 16 18 19 22 23 19 16 17 18 18 18 18 20 20 18 16 15 14 11 9 6 6 7 8 9 10 9 10 10 7 4 4 8 10 9 8 6 5 6 7 7 9 12 15 17 18 19 22 21 16 13 12 10 9 11
8 8 9 10 12 13 13 12 13 17 20 20 18 14 13 15 15 15 15 18 20 19 17 15 13 10 8 7 5 5 7 8 8 9 8 8 8 7 5 6 9 10 10 8 6 6 6 7 8 9 11 13 15 15 18 21 18 12 11 11 10 9 10
8 8 9 10 11 13 12 11 11 13 15 14 11 10 12 14 13 13 15 17 18 16 13 12 11 9 7 6 5 5 6 7 7 7 7 7 7 7 7 8 9 10 8 8 8 8 7 7 7 9 11 12 13 15 19 19 13 9 10 11 11 11 10
8 8 8 8 9 10 10 9 8 7 7 7 7 7 10 12 12 13 16 18 16 13 12 12 11 9 7 6 5 5 5 6 5 4 5 5 6 7 7 8 9 10 9 9 10 9 9 8 7 9 12 12 10 13 17 17 11 9 9 9 12 13 11
8 8 8 8 7 7 6 5 5 5 5 5 5 6 8 10 11 13 16 16 14 13 13 12 11 9 8 6 5 4 3 4 3 3 3 4 6 7 7 8 9 9 9 9 11 10 10 9 8 9 11 11 10 12 15 13 10 8 9 11 13 13 11
8 8 8 7 7 5 3 3 3 5 5 5 5 6 7 8 10 12 12 12 11 12 12 11 10 8 7 5 4 4 3 1 1 3 4 5 6 7 8 8 9 10 10 11 12 11 10 10 9 9 10 9 10 12 14 11 7 7 11 16 16 14 12
7 7 7 7 6 4 3 3 3 3 2 2 1 2 4 5 7 8 8 8 9 9 10 9 8 7 5 4 4 4 3 2 2 3 5 6 6 8 10 8 8 10 12 12 11 9 9 10 9 8 9 9 9 11 13 10 8 10 15 19 18 16 14
8 8 7 7 7 5 4 3 2 3 3 3 2 1 1 2 3 4 4 5 5 7 8 8 7 4 3 3 5 5 5 5 5 6 6 7 8 9 9 8 9 11 12 11 10 10 10 10 9 7 7 8 8 9 9 9 10 13 17 18 16 14 11
8 9 8 8 7 7 7 6 5 5 4 4 3 2 1 1 1 3 3 3 4 6 7 8 7 3 3 5 6 7 7 6 7 7 6 8 9 8 6 7 10 13 11 8 9 10 9 7 6 4 4 4 4 6 7 8 10 14 16 15 11 7 6
8 8 8 7 7 7 7 6 6 5 4 4 3 2 2 2 2 2 3 3 4 5 6 7 7 4 6 7 6 6 6 8 9 8 7 7 7 7 6 4 5 7 6 5 6 5 3 1 1 2 3 4 3 4 7 9 11 12 12 10 6 5 8
7 8 7 7 7 7 7 6 5 5 4 3 3 2 2 2 2 3 3 3 3 4 5 7 7 6 7 7 6 4 5 8 8 6 7 6 6 7 7 3 1 1 2 2 2 1 3 4 5 7 7 7 7 6 8 11 12 11 9 5 3 4 8
Wind_Direction
195 193 192 189 187 187 187 188 185 179 175 173 172 173 176 173 170 177 184 186 185 179 178 183 189 199 237 279 300 320 328 338 340 340 337 329 333 332 328 323 315 313 311 310 313 313 311 314 317 322 326 326 327 325 319 315 310 307 306 302 299 295 291
196 191 190 187 186 186 184 185 184 180 177 177 177 178 179 174 173 182 188 188 187 184 187 193 195 196 212 248 264 281 295 322 324 322 321 312 320 325 320 317 311 306 307 307 308 307 303 301 301 305 311 315 320 321 319 318 315 313 313 310 306 304 297
201 192 187 185 183 182 182 183 184 182 180 181 182 182 182 176 177 186 190 188 186 186 193 198 198 199 206 230 247 258 268 293 301 295 298 302 317 325 321 319 315 309 306 304 304 304 298 295 295 295 297 304 312 316 318 318 316 313 312 310 309 308 302
202 193 185 181 180 180 181 182 183 183 183 184 184 184 182 178 180 188 191 188 187 190 199 203 205 212 222 238 252 251 246 255 271 272 274 285 306 319 324 326 326 318 310 304 302 300 297 296 295 294 295 300 307 313 315 315 314 311 308 307 307 307 306
196 190 182 179 180 180 181 180 182 184 184 184 184 183 181 179 182 189 190 187 189 195 205 212 213 221 237 249 249 243 238 239 243 247 254 271 293 308 317 324 328 325 314 304 299 297 298 298 297 296 297 299 304 309 312 313 312 309 306 304 304 307 312
190 186 182 180 181 181 180 182 184 186 186 184 182 181 181 182 186 192 190 183 186 196 206 217 221 229 245 251 246 239 233 230 231 236 244 260 279 293 303 311 318 323 319 309 301 297 297 297 296 295 295 296 300 303 306 311 311 308 305 299 297 306 310
188 185 184 184 184 182 180 182 184 186 186 183 180 181 185 186 190 195 193 187 192 203 213 223 228 235 247 250 244 240 237 234 234 237 246 260 273 282 288 293 300 312 317 312 307 302 298 296 294 292 291 291 292 294 299 306 309 308 305 300 300 308 309
188 186 187 187 188 186 180 180 183 186 187 183 180 184 188 187 189 194 196 200 208 217 228 236 234 234 242 245 241 238 237 238 239 242 250 262 271 278 283 289 295 301 306 307 306 303 298 295 293 291 289 287 287 288 291 299 304 305 304 303 306 311 313
187 187 190 189 190 188 180 179 182 183 183 179 178 184 186 184 189 195 199 207 217 225 235 243 239 234 237 239 240 237 235 237 241 246 252 261 270 279 287 294 299 299 300 302 303 301 295 291 289 288 287 286 285 283 283 291 299 304 305 305 309 313 312
186 188 191 189 191 186 178 177 177 176 175 172 173 180 182 183 189 194 199 211 222 226 231 238 240 239 239 240 241 237 235 238 241 246 252 260 270 279 287 299 308 309 305 303 302 300 295 291 287 284 282 282 283 281 282 287 294 302 306 308 312 312 309
185 185 185 185 185 180 176 175 171 168 168 168 171 177 179 181 185 189 196 212 225 230 228 230 236 241 243 246 246 240 238 242 244 248 254 260 271 281 292 305 313 312 309 305 301 299 295 292 289 283 277 275 278 279 281 284 288 295 304 309 311 309 307
187 184 183 181 179 176 175 174 167 163 164 168 173 177 179 179 182 188 195 209 224 230 227 228 234 241 246 251 252 245 244 247 247 251 257 262 272 283 292 301 305 307 309 309 306 301 297 293 291 286 279 273 275 278 278 278 280 286 295 303 308 310 311
191 189 185 179 177 176 175 173 166 161 165 171 175 178 179 180 184 188 193 206 219 222 222 226 231 236 243 252 254 250 250 252 250 254 262 268 274 282 289 294 301 308 310 308 305 302 300 296 292 289 283 277 277 279 277 274 275 280 285 294 305 312 315
196 194 188 181 180 180 177 174 167 163 166 171 174 176 177 181 184 187 194 206 215 218 220 224 227 232 239 247 250 250 253 256 253 256 263 268 274 282 285 291 301 307 305 303 302 301 300 298 294 290 287 284 282 280 278 276 276 276 276 288 304 313 318
200 196 190 186 185 184 181 175 169 165 166 169 172 173 174 178 180 185 197 208 212 216 221 222 224 230 237 242 245 249 255 255 252 256 262 267 275 282 285 294 303 302 300 302 301 300 299 298 296 291 286 286 286 281 278 280 276 271 274 289 306 316 321
205 198 194 192 189 188 184 176 170 165 164 168 171 171 173 175 178 189 204 211 212 216 220 221 223 227 234 239 243 250 255 252 250 256 263 270 278 283 289 301 304 298 300 305 302 299 300 299 296 293 290 291 292 287 282 281 268 261 274 292 309 321 323
212 204 200 195 190 187 184 178 172 165 163 168 170 170 174 177 183 199 211 215 217 218 219 220 222 225 231 238 243 249 254 253 252 258 266 273 279 282 292 302 301 299 304 306 302 300 300 299 297 296 296 296 297 293 288 282 267 265 278 291 306 321 323
222 212 204 196 191 188 184 179 175 169 166 169 170 172 176 180 190 204 212 215 219 222 222 220 221 226 231 236 243 249 253 255 256 261 270 277 280 283 293 301 299 302 307 304 302 302 301 300 300 299 300 300 301 300 295 287 276 276 281 285 298 317 322
233 220 207 198 192 187 185 182 177 171 167 168 171 175 180 187 197 206 210 212 216 221 223 221 222 227 232 237 245 250 255 259 260 266 272 278 282 284 292 300 302 307 310 306 302 302 301 301 301 300 300 299 299 300 300 296 290 287 285 285 296 315 322
237 224 209 202 195 189 189 183 173 167 165 167 173 179 186 195 202 206 209 211 215 219 221 221 223 228 232 239 246 250 256 261 264 270 274 278 282 283 288 298 303 307 311 309 305 303 301 301 303 301 299 298 298 300 302 302 300 297 290 289 300 313 319
233 222 211 204 197 192 189 176 165 161 162 168 175 182 190 198 203 207 209 211 215 217 218 220 224 227 232 239 247 251 257 264 269 274 276 278 279 279 283 293 299 304 310 310 309 307 304 302 302 298 294 293 292 295 302 309 311 305 292 288 298 309 311
223 216 210 203 197 191 180 169 161 156 154 162 174 184 193 200 205 209 210 211 215 217 217 220 224 227 231 239 247 254 260 266 273 277 278 278 276 275 281 290 296 301 304 304 307 310 307 305 304 303 302 302 300 296 295 299 305 305 296 289 293 297 299
209 205 202 195 191 182 171 165 159 152 151 161 177 189 197 202 206 208 211 213 215 217 218 220 222 225 231 239 249 258 263 267 275 280 280 279 276 275 280 287 293 298 302 306 309 307 308 313 317 320 318 313 310 307 301 297 299 302 296 291 291 290 292
191 187 183 182 181 172 165 162 157 155 162 173 184 193 201 205 205 206 210 214 217 219 220 220 222 225 232 242 251 258 263 266 272 278 279 277 274 275 281 287 295 302 308 314 313 309 317 328 328 324 320 314 307 304 302 300 299 300 296 288 289 288 287
163 163 166 172 173 165 162 160 157 162 172 181 189 197 202 204 205 206 210 214 219 222 221 220 222 224 232 245 253 259 264 266 270 275 276 274 273 276 283 289 297 302 304 309 311 316 330 335 326 321 320 316 309 304 301 297 291 293 298 289 286 286 282
151 152 158 165 165 160 159 157 158 168 179 187 197 204 204 202 204 207 211 214 219 223 222 220 220 223 233 246 253 257 262 264 268 271 272 276 279 279 279 282 285 287 287 287 291 303 319 320 317 319 318 315 310 304 300 294 289 294 300 288 283 286 281
143 148 155 159 157 157 161 164 170 178 187 197 207 209 204 200 201 206 211 215 220 222 220 219 223 229 237 243 245 253 259 262 266 268 271 279 280 268 243 257 269 267 267 271 271 277 295 301 306 312 312 312 310 304 300 297 292 292 292 283 282 289 285
143 151 155 154 155 160 167 174 182 190 198 207 212 209 200 196 199 203 209 216 222 221 220 223 229 230 228 224 227 248 261 265 268 270 266 262 255 242 224 237 254 260 262 261 257 263 281 292 301 305 306 309 309 304 303 300 293 284 280 280 283 287 286
142 150 155 158 164 171 177 181 187 198 209 214 211 201 192 195 199 201 207 218 224 223 220 219 214 202 194 200 216 245 263 269 270 269 262 249 241 239 239 241 250 259 262 257 260 273 278 286 302 308 305 305 306 309 311 308 300 293 293 295 295 291 285
143 151 164 176 179 180 186 192 194 204 213 211 197 187 192 201 204 203 211 222 225 219 206 194 183 176 182 206 225 243 262 269 266 262 259 251 238 233 238 247 255 259 256 256 269 277 277 282 296 302 300 300 307 316 317 311 307 310 313 312 311 307 297
147 149 159 170 170 172 188 200 200 202 200 185 176 185 199 207 209 209 217 225 222 207 187 173 171 179 194 213 229 242 255 260 260 263 267 259 241 234 241 255 260 256 255 266 276 278 277 282 288 289 293 300 310 316 312 309 312 326 331 326 321 315 306
143 142 143 140 135 145 173 191 195 198 194 188 200 213 215 218 222 226 230 226 211 193 180 172 171 182 196 213 228 228 229 243 263 289 289 266 248 244 249 257 259 256 254 265 276 278 276 277 277 278 288 301 310 308 307 313 328 339 337 334 329 320 309
135 131 129 124 119 125 147 176 208 222 229 232 228 229 233 235 237 241 241 229 206 184 171 168 173 184 196 206 202 184 173 180 296 305 288 270 261 266 266 258 256 261 263 266 273 276 276 278 281 284 292 305 310 306 308 320 344 348 337 337 336 329 321
124 118 112 113 121 133 149 179 214 236 256 256 219 231 255 255 250 247 240 229 214 186 166 167 173 179 188 187 174 169 167 173 227 263 270 268 270 280 278 262 250 263 274 276 275 275 279 284 289 295 299 305 311 313 314 328 358 356 341 336 331 324 324
118 120 118 120 128 131 124 115 97 75 69 73 74 60 279 259 260 245 219 209 198 172 162 158 150 147 175 181 179 192 208 230 246 252 265 276 276 275 273 263 258 267 276 276 268 267 275 283 288 300 309 313 326 337 337 345 354 345 335 332 326 318 322
123 121 119 119 117 109 96 85 81 83 90 93 86 83 115 135 219 235 216 194 164 153 152 143 133 149 227 218 217 226 233 255 270 265 267 281 284 277 263 256 261 267 268 262 260 264 268 270 273 290 313 330 345 355 359 356 344 334 335 341 341 337 344
122 119 118 117 110 102 97 93 93 98 100 101 102 108 123 138 164 191 192 173 153 154 156 147 147 191 232 233 238 246 254 274 283 276 266 274 280 276 267 257 265 273 264 247 255 274 283 275 38 41 54 67 52 4 357 357 347 339 342 350 3 25 26
115 116 119 121 115 113 114 113 112 114 115 118 126 135 159 190 198 201 200 184 168 173 174 166 173 205 232 238 237 231 244 263 272 270 270 273 271 270 270 260 209 171 169 192 197 134 92 91 84 71 61 64 67 47 19 9 2 355 351 347 355 30 33